BEIDOU-3 M26 (C48)

Last updated on Thu Nov 21 2024 00:03:17 GMT+0000 (Coordinated Universal Time)

1 58655U 23207B 24325.09359558 -.00000022 00000+0 00000+0 0 9996 2 58655 55.2450 81.7413 0003179 230.0767 129.8764 1.86231489 6130
UTC large
Height (km)
Speed (km/s)
/
Latitude / Longitude
Inclination (degrees)
Orbital Period (minutes)
Azimuth
Elevation
Range (km)
Doppler Factor

Next 0 passes for location: London (51.5072 / 0.1276)

Sorry there are no passes over London.